Presure
171 164 148 163 178 165 175 175 182 153 149 172 178 179 184 173 176 167 174 189 170 178 184 169 180 188 176 181 177 185 179 170 182 171 190 182 168 171 157 189 176 171 177 181
166 153 175 172 168 171 174 183 182 158 188 159 164 161 188 167 181 169 181 182 181 176 185 178 170 180 185 188 180 169 172 180 172 173 171 171 186 191 191 183 177 182 178 179
165 160 168 163 176 184 167 183 179 184 196 164 172 155 174 180 178 175 165 178 188 175 179 187 173 171 163 163 178 180 161 151 177 165 172 180 189 188 164 163 189 184 171 183
179 178 187 178 187 183 191 138 187 187 183 165 186 156 170 177 158 167 172 175 180 184 165 160 168 165 186 157 166 178 185 176 182 189 167 174 180 176 181 172 173 172 178 181
180 175 179 176 161 172 172 186 185 182 185 163 178 181 144 152 127 171 175 177 167 165 166 169 152 186 175 180 167 181 178 175 185 179 180 179 185 164 172 169 176 185 189 173
188 186 164 187 174 182 177 172 176 184 185 181 167 181 62 145 150 127 112 173 169 179 188 166 137 161 169 162 154 153 175 161 165 174 177 175 172 181 180 176 178 173 173 181
204 187 190 164 187 171 168 191 185 191 187 188 181 165 176 66 66 105 153 143 70 186 86 187 168 167 161 179 179 176 160 135 162 182 160 177 183 173 177 180 181 182 181 175
178 176 194 192 195 192 174 179 191 191 191 191 165 176 182 144 128 177 171 220 169 170 149 167 145 183 187 165 185 184 181 187 141 182 189 175 180 185 184 179 177 172 171 168
214 203 144 169 179 189 182 142 223 220 198 197 198 181 216 185 177 198 200 190 179 200 201 212 192 192 193 203 201 188 174 203 196 186 186 191 194 184 183 197 189 187 196 183
223 224 232 223 225 221 204 207 210 197 218 208 208 197 162 190 205 203 200 197 197 202 197 200 200 208 194 182 203 178 167 203 198 180 185 195 181 187 188 203 187 204 208 198
233 232 227 228 227 235 142 220 208 221 226 227 225 227 220 208 196 206 199 199 209 173 198 193 195 198 198 181 194 196 201 185 210 213 206 216 204 205 215 209 199 203 202 223
203 225 225 230 209 222 214 220 223 220 230 228 235 243 235 226 237 234 226 207 216 110 204 200 206 211 212 201 212 203 199 214 212 212 214 216 218 217 215 225 205 215 223 215
214 204 200 211 226 224 221 224 205 223 210 221 213 213 205 220 231 236 81 147 232 232 230 229 210 201 220 204 217 216 216 213 210 218 202 203 214 202 213 208 219 212 201 226
224 215 228 238 237 242 218 213 217 213 240 224 229 219 224 221 236 136 231 211 213 229 243 239 232 222 213 232 225 214 224 220 219 219 215 210 218 208 205 210 203 199 225 210
253 267 244 253 253 236 234 233 247 248 246 254 264 244 250 266 251 289 284 279 285 282 255 225 233 235 244 235 228 236 223 140 217 225 228 222 220 214 212 212 210 231 194 219
259 256 253 277 278 274 279 277 273 268 247 257 273 274 272 284 285 291 291 289 303 307 300 281 272 269 295 279 241 238 233 228 242 227 226 221 225 218 217 215 236 194 224 232
255 258 268 272 270 274 281 274 282 281 272 274 272 273 278 273 293 305 327 331 346 385 387 392 395 384 351 303 286 270 266 241 230 243 230 172 226 230 228 234 237 227 187 221
271 271 271 276 264 264 274 281 176 155 274 270 283 300 318 319 323 368 373 374 372 376 373 379 381 366 367 336 356 298 320 290 265 243 229 226 225 229 222 221 219 222 229 230
276 271 272 270 274 287 288 255 289 83 309 303 310 312 354 356 352 348 351 352 351 343 344 345 363 333 288 277 292 331 320 294 292 263 243 244 236 227 226 226 232 232 240 237
264 268 295 296 290 290 303 297 306 302 310 370 355 346 337 330 328 324 325 338 346 331 317 322 327 310 281 276 292 285 258 247 245 253 260 261 248 244 239 235 235 240 242 248
289 283 286 296 295 312 315 313 367 363 349 343 334 323 314 312 315 311 321 329 345 335 313 309 314 317 298 298 274 285 276 274 258 241 250 256 252 249 253 251 248 243 236 259
296 295 290 304 309 322 362 373 348 333 330 326 314 309 307 306 314 313 316 315 314 316 311 304 304 301 302 277 278 264 258 186 252 246 247 245 216 244 249 251 251 256 258 254
311 309 310 359 363 347 331 318 314 308 305 321 319 316 307 303 300 295 301 328 319 322 325 305 295 299 283 270 286 262 248 256 255 249 244 243 240 249 251 250 248 252 255 257
354 344 348 352 338 334 322 324 307 305 305 315 305 306 297 291 294 295 292 303 308 315 327 314 299 293 296 290 282 276 260 260 262 253 259 257 256 258 261 261 256 254 257 255
339 341 335 346 329 329 346 337 322 308 300 299 294 294 205 285 251 293 299 220 239 303 313 335 320 320 180 290 280 276 272 264 265 262 260 271 270 270 261 262 270 264 266 264
332 334 345 346 341 328 318 310 299 295 293 183 196 261 302 293 158 289 289 285 287 285 289 308 331 329 216 290 290 286 288 274 269 271 266 266 262 270 270 262 261 266 265 268
Wind_Speed
116 106 84 111 117 103 115 114 114 97 72 101 106 100 99 95 95 89 95 87 88 87 86 79 86 81 75 74 72 69 60 59 68 63 54 51 47 49 65 54 50 53 52 54
111 85 112 118 109 110 114 113 111 100 113 85 89 84 97 88 100 95 100 89 93 94 92 80 76 84 83 80 77 67 67 71 69 68 60 56 65 63 58 57 57 60 58 59
107 106 114 106 98 112 108 110 104 109 105 93 96 92 100 103 97 98 86 102 95 91 88 90 81 76 71 72 81 79 72 58 76 68 71 72 68 66 63 63 66 65 62 65
124 122 109 118 112 115 109 89 111 110 109 90 104 78 101 104 78 97 98 99 104 100 80 80 86 78 92 79 77 84 82 82 83 74 71 77 73 72 72 69 70 69 72 74
126 119 118 119 95 110 105 114 114 114 112 80 106 102 79 88 70 96 103 98 91 90 90 96 69 97 93 92 83 87 85 83 81 80 78 78 75 71 76 74 78 77 78 75
127 126 100 124 115 118 114 105 113 117 117 104 94 106 12 83 77 60 42 105 101 113 102 84 72 88 96 88 85 83 87 82 85 84 81 83 83 81 82 84 84 82 81 83
124 127 122 100 125 110 101 124 124 122 120 114 109 81 100 16 20 52 93 67 25 111 33 103 97 97 92 100 98 98 75 48 71 87 71 80 85 85 87 85 86 87 88 87
123 120 127 128 130 128 119 120 129 127 124 120 103 99 109 92 91 110 111 87 105 102 88 99 72 111 100 100 97 97 92 91 55 93 90 95 90 88 89 90 92 91 89 81
128 127 98 106 119 125 117 96 119 120 126 111 121 110 99 110 107 104 102 96 87 96 94 92 94 96 96 95 94 94 97 91 93 92 91 90 90 93 93 90 96 100 98 92
126 125 120 121 121 121 117 118 117 116 118 114 108 103 93 100 99 99 99 99 100 100 97 94 92 97 98 98 96 101 97 92 92 95 97 93 94 91 96 89 101 93 94 101
119 120 122 122 121 119 91 122 115 124 125 124 120 112 104 102 97 100 102 103 103 96 100 100 101 100 101 96 99 100 99 94 94 94 94 91 91 93 90 92 97 93 98 95
110 119 121 120 113 123 121 125 127 128 127 124 124 118 109 107 101 107 101 99 100 35 97 101 102 100 99 103 101 101 101 100 97 95 94 93 90 91 92 90 95 92 93 91
120 113 104 117 125 129 126 126 109 123 112 113 111 106 94 106 111 112 18 55 104 106 102 103 102 104 103 105 102 101 101 100 97 97 94 93 93 89 92 91 95 93 100 93
127 122 124 128 127 134 119 121 124 115 129 121 128 118 120 109 124 57 105 97 98 105 109 107 103 107 105 105 103 102 103 102 99 99 97 93 95 95 94 95 94 85 104 89
125 125 126 123 126 130 129 126 130 129 127 135 128 130 126 129 122 118 119 115 113 112 105 104 104 104 110 107 106 106 101 55 100 104 104 100 100 99 98 98 94 101 91 105
115 115 116 109 112 119 116 108 110 116 119 121 119 119 117 113 110 105 102 104 104 101 100 102 105 107 104 106 105 104 102 104 105 102 102 100 102 104 103 106 96 83 116 109
113 113 112 105 107 110 108 98 104 103 105 105 106 106 107 99 105 100 95 92 84 63 63 61 62 62 76 88 93 95 92 97 99 99 98 80 102 105 104 104 98 99 68 99
107 106 109 102 103 106 95 95 48 51 96 100 102 98 95 94 92 67 59 54 54 51 47 42 42 44 43 56 49 75 60 77 84 87 95 99 101 99 101 103 105 107 112 108
99 101 102 101 99 97 86 69 93 29 88 91 90 90 66 59 57 59 53 51 49 44 42 32 35 28 34 56 57 32 43 46 50 76 92 95 101 107 108 109 112 113 110 111
96 96 95 91 93 90 76 84 86 86 78 55 55 55 52 52 52 54 52 48 42 40 42 34 34 42 56 60 32 37 55 65 63 71 73 80 90 102 101 106 108 110 113 106
86 90 88 87 87 83 78 82 59 47 43 48 49 48 49 51 50 51 45 43 37 36 39 41 36 47 52 46 51 43 45 49 63 79 79 76 79 89 88 91 96 101 93 103
84 85 83 85 84 79 52 40 39 40 45 44 45 47 48 48 43 42 43 44 42 37 37 43 39 37 42 45 46 48 54 44 67 71 74 79 70 91 88 90 95 92 91 95
80 81 80 63 52 46 45 50 42 45 44 34 40 39 37 41 43 47 45 37 39 35 35 43 47 46 49 53 58 57 63 67 73 76 81 83 88 93 91 92 92 96 98 97
53 54 52 49 40 43 48 49 42 45 40 40 41 37 40 42 41 40 41 42 40 37 32 39 49 51 55 54 55 68 68 71 75 80 84 87 91 93 94 92 92 93 93 91
46 45 44 39 36 42 37 41 40 39 37 42 41 39 33 43 37 40 42 35 37 43 41 37 37 46 36 59 60 63 66 65 70 75 78 84 81 83 85 87 90 89 89 88
42 39 38 28 32 31 32 31 36 38 40 27 30 39 38 35 24 44 37 42 46 47 42 43 41 37 44 58 63 65 70 70 71 73 75 81 78 89 88 87 86 88 87 89
Wind_Direction
268 274 267 277 275 279 278 279 278 279 274 285 288 289 288 293 293 294 297 295 295 293 296 290 303 301 301 302 301 306 303 291 308 291 308 309 286 290 280 301 290 284 291 293
270 271 270 273 276 276 278 276 276 274 276 274 287 290 285 292 291 294 295 294 295 297 297 296 293 300 301 301 299 295 297 301 295 297 292 292 306 303 302 300 295 297 292 292
271 270 275 277 268 274 278 274 275 278 276 275 285 285 289 288 289 292 291 294 292 297 294 295 295 294 287 287 299 300 282 292 300 287 299 303 300 300 282 279 295 294 287 295
267 270 268 273 271 273 272 266 274 277 279 279 281 284 289 286 283 288 292 295 294 292 287 285 291 286 296 278 289 298 296 298 299 295 291 297 297 296 298 292 292 292 295 293
267 269 270 272 273 277 277 275 276 277 278 277 283 281 281 279 282 292 291 288 287 284 286 290 289 292 296 295 291 294 293 293 292 292 292 293 294 285 291 289 292 290 288 289
265 266 271 269 274 275 277 278 278 275 276 278 272 281 277 284 284 285 289 286 285 287 284 284 278 283 290 285 282 283 288 286 285 288 288 287 288 287 288 289 289 288 289 290
263 267 267 265 271 274 277 273 275 274 276 275 277 272 280 285 281 282 283 274 265 282 276 283 281 281 282 286 286 285 286 284 285 283 289 287 284 287 286 286 286 286 287 289
269 270 267 269 270 270 276 277 274 274 275 275 274 283 277 259 278 277 279 278 275 276 283 280 289 278 280 282 281 282 283 282 282 283 282 285 283 283 284 285 285 287 288 290
267 265 266 272 273 270 272 270 274 275 272 276 272 273 278 271 272 274 276 276 277 274 275 279 277 277 278 280 280 278 280 281 279 280 281 283 281 282 283 282 284 285 283 284
269 269 271 270 273 273 272 274 273 272 275 273 274 273 275 274 278 277 277 277 278 281 279 279 277 284 281 272 283 269 276 282 282 284 280 282 284 283 282 280 285 281 280 282
267 269 272 274 274 275 269 277 277 279 280 280 281 281 279 273 271 275 274 274 276 269 276 276 277 277 277 271 279 280 280 283 281 279 280 280 278 279 277 279 280 280 280 278
271 269 271 272 275 275 275 276 277 279 278 279 280 278 278 276 275 272 272 271 274 267 271 270 271 272 273 273 273 273 277 277 277 278 279 279 277 278 278 280 277 280 283 280
268 273 274 275 273 274 274 275 275 276 279 279 278 278 272 279 282 280 273 268 276 274 272 272 269 269 270 270 271 271 272 273 274 274 276 277 277 277 279 279 282 280 276 287
265 268 267 266 268 269 273 275 276 276 277 280 279 278 280 275 278 275 270 266 266 269 270 270 270 269 269 269 268 270 271 272 274 274 274 275 277 278 278 280 278 284 285 280
263 260 265 264 264 268 269 272 271 273 274 271 272 273 274 272 272 273 273 272 271 268 266 268 268 267 267 267 267 268 270 271 273 274 275 278 278 278 279 281 276 280 280 285
266 267 267 265 265 266 267 270 272 271 273 274 274 273 274 275 275 274 272 272 272 270 267 264 263 264 264 265 265 265 267 269 268 269 271 274 275 275 278 278 277 279 280 285
269 270 269 269 269 270 272 275 272 274 274 274 274 274 274 275 275 276 277 276 274 272 272 271 265 259 262 262 262 262 263 263 266 268 271 275 271 271 273 274 278 280 286 286
267 268 268 268 269 271 273 272 258 252 272 272 273 275 277 277 279 281 281 277 275 275 268 267 257 255 257 260 260 258 256 258 259 263 265 268 271 272 276 277 279 279 280 282
267 268 269 269 269 271 273 272 271 237 271 273 276 277 277 278 279 279 281 279 277 272 267 254 246 232 254 263 260 243 234 259 260 254 258 258 260 265 269 273 273 275 277 280
267 268 266 268 271 273 277 272 272 273 275 265 267 271 274 277 278 279 281 281 276 265 266 246 232 212 235 251 244 230 239 251 255 258 256 258 258 263 265 267 270 271 273 275
265 268 271 273 274 275 274 273 274 265 268 261 263 267 270 273 274 275 280 284 286 262 251 251 245 226 230 226 234 236 239 232 233 250 255 260 259 261 264 266 267 271 273 273
268 269 270 270 272 276 273 261 258 262 257 258 261 262 265 269 273 275 278 278 279 271 253 247 241 225 218 226 224 230 233 256 237 247 253 256 263 262 265 267 272 273 273 275
267 268 268 268 268 266 261 261 258 261 263 254 252 256 260 264 267 270 273 284 275 273 263 247 243 231 224 237 221 222 240 238 235 241 249 255 259 259 259 261 266 268 269 274
261 259 261 259 260 252 252 249 254 255 260 254 260 255 257 263 266 271 275 279 280 279 271 254 248 244 233 231 227 223 234 240 237 242 246 249 251 255 257 260 262 266 269 274
252 253 255 253 247 249 244 245 242 246 251 251 255 257 268 266 269 268 273 277 276 281 283 281 258 249 279 237 236 237 238 244 245 244 248 252 254 256 259 263 265 267 270 273
248 244 248 246 223 226 234 231 241 245 248 253 269 266 268 271 282 275 267 270 271 274 278 281 272 265 260 245 244 243 238 243 249 253 254 256 260 260 259 263 268 271 274 277